SCP
0 0 0 0 0 0 0 0 -0 -0 -0 -0 -0 -0 0 0 0 0 0 0 0 0 0 0 0 0 0 0 0 -0 -0 -0 0 0 0 0 0 0 0 0 0 0 0 0 0 0 0
0 0 0 0 0 0 -0 -0 -0 -0 -0 -0 -0 0 0 0 0 0 0 0 0 0 -0 -0 -0 0 0 0 0 -0 -0 0 -0 0 0 0 0 0 0 0 0 0 0 0 0 0 0
0 0 -0 -0 -0 -0 -0 -0 -0 -0 -0 -0 -0 -0 0 0 0 0 0 -0 -0 -0 -0 -0 -0 0 0 -0 0 -0 -0 0 0 0 0 0 0 0 0 0 0 0 0 0 0 0 0
0 0 -0 -0 -0 -0 -0 -0 -0 -0 -0 -0 -0 -0 -0 -0 -0 -0 -0 -0 -0 -0 -0 -0 0 0 -0 0 0 0 -0 0 0 0 0 0 0 0 0 0 0 0 0 0 0 0 0
0 0 -0 -0 -0 -0 -0 -0 -0 -0 -0 -0 -0 -0 -0 -0 -0 -0 -0 -0 -0 -0 -0 0 0 0 0 0 0 0 0 0 0 0 0 0 0 0 0 0 0 0 0 0 0 0 0
-0 -0 -0 -0 -0 -0 -0 -0 -0 -0 -0 -0 -0 -0 -0 -0 -0 -0 -0 -0 0 0 0 0 0 0 0 0 0 0 0 0 0 0 0 0 0 0 0 0 0 0 0 0 0 0 0
-0 -0 -0 -0 -0 -0 -0 -0 -0 -0 -0 -0 -0 -0 -0 -0 -0 0 -0 0 -0 0 0 0 0 0 0 0 0 0 0 0 0 0 0 0 0 0 0 0 0 0 0 0 0 0 0
-0 -0 -0 -0 -0 -0 -0 -0 -0 -0 -0 -0 -0 -0 -0 -0 0 -0 0 0 0 0 0 0 0 0 0 0 0 0 0 0 0 0 0 0 0 0 0 0 0 0 0 0 0 0 0
-0 -0 -0 -0 -0 -0 -0 -0 -0 -0 -0 -0 -0 -0 -0 -0 -0 0 0 0 0 0 0 0 0 0 0 0 0 0 0 0 0 0 0 0 0 0 0 0 0 0 0 0 0 0 0
0 0 0 -0 -0 -0 -0 -0 -0 -0 -0 -0 -0 -0 -0 -0 0 0 0 0 0 0 0 0 0 0 0 0 0 0 0 0 0 0 0 0 0 0 0 0 0 0 0 0 0 0 0
0 0 0 0 0 0 -0 -0 -0 -0 -0 -0 -0 -0 0 0 0 0 -0 -0 0 0 0 0 0 0 0 0 0 0 0 0 0 0 0 0 0 0 0 0 0 0 0 0 0 0 0
0 0 0 0 0 0 0 0 -0 -0 -0 -0 -0 0 -0 -0 -0 0 -0 0 0 0 0 0 0 0 0 0 0 0 0 0 0 0 0 0 0 0 0 0 0 0 0 0 0 0 0
0 0 0 0 0 0 0 0 0 0 0 0 0 0 0 -0 0 -0 -0 0 0 0 0 0 0 0 0 0 0 0 0 0 0 0 0 0 0 0 0 0 0 0 0 0 0 0 0
0 0 0 0 0 0 0 0 0 0 0 0 0 -0 0 0 0 -0 0 0 0 0 0 0 0 0 0 0 0 0 0 0 0 0 0 0 0 0 0 0 0 0 0 0 0 0 0
0 0 0 0 0 0 0 0 0 0 0 0 -0 0 0 0 0 0 0 0 0 0 0 0 0 0 0 0 0 0 0 0 0 0 0 0 0 0 0 0 0 0 0 0 0 0 0
0 0 0 0 0 0 0 0 0 0 0 0 0 0 0 0 0 0 0 0 0 0 0 0 0 0 0 0 0 0 0 0 0 0 0 0 0 0 0 0 0 0 0 0 0 0 0
0 0 0 0 0 0 0 0 0 0 0 0 0 0 0 0 0 0 0 0 0 0 0 0 0 0 0 0 0 0 0 0 0 0 0 0 0 0 0 0 0 0 0 0 0 0 0
0 0 0 0 0 0 0 0 0 0 0 0 0 0 0 0 0 0 0 0 0 0 0 0 0 0 0 0 0 0 0 0 0 0 0 0 0 0 0 0 0 0 0 0 0 0 0
0 0 0 0 0 0 0 0 0 0 0 0 0 0 0 0 0 0 0 0 0 0 0 0 0 0 0 0 0 0 0 0 0 0 0 0 0 0 0 0 0 0 0 0 0 0 0
0 0 0 0 0 0 0 0 0 0 0 0 0 0 0 0 0 0 0 0 0 0 0 0 0 0 0 0 0 0 0 0 0 0 0 0 0 0 0 0 0 0 0 0 0 0 0
0 0 0 0 0 0 0 0 0 0 0 0 0 0 0 0 0 0 0 0 0 0 0 0 0 0 0 0 0 0 0 0 0 0 0 0 0 0 0 0 0 0 0 0 0 0 0
0 0 0 0 0 0 0 0 0 0 0 0 0 0 0 0 0 0 0 0 0 0 0 0 0 0 0 0 0 0 0 0 0 0 0 0 0 0 0 0 0 0 0 0 0 0 0
0 0 0 0 0 0 0 0 0 0 0 0 0 0 0 0 0 0 0 0 0 0 0 0 0 0 0 0 0 0 0 0 0 0 0 0 0 0 0 0 0 0 0 0 0 0 0
0 0 0 0 0 0 0 0 0 0 0 0 0 0 0 0 0 0 0 0 0 0 0 0 0 0 0 0 0 0 0 0 0 0 0 0 0 0 0 0 0 0 0 0 0 0 0
0 0 0 0 0 0 0 0 0 0 0 0 0 0 0 0 0 0 0 0 0 0 0 0 0 0 0 0 0 0 0 0 0 0 0 0 0 0 0 0 0 0 0 0 0 0 0
0 0 0 0 0 0 0 0 0 0 0 0 0 0 0 0 0 0 0 0 0 0 0 0 0 0 0 0 0 0 0 0 0 0 0 0 0 0 0 0 0 0 0 0 0 0 0
0 0 0 0 0 0 0 0 0 0 0 0 0 0 0 0 0 0 0 0 0 0 0 0 0 0 0 0 0 0 0 0 0 0 0 0 0 0 0 0 0 0 0 0 0 0 0
0 0 0 0 0 0 0 0 0 0 0 0 0 0 0 0 0 0 0 0 0 0 0 0 0 0 0 0 0 0 0 0 0 0 0 0 0 0 0 0 0 0 0 0 0 0 0
0 0 0 0 0 0 0 0 0 0 0 0 0 0 0 0 0 0 0 0 0 0 0 0 0 0 0 0 0 0 0 0 0 0 0 0 0 0 0 0 0 0 0 0 0 0 0
Wind_Speed_500mb
39 44 43 39 36 35 35 36 35 33 29 26 21 19 17 16 16 16 16 16 16 15 10 9 10 7 4 9 11 16 15 15 19 17 11 14 12 8 8 9 8 10 7 4 4 5 7
36 41 44 42 39 38 37 37 37 35 32 28 23 17 14 13 13 14 15 17 13 9 19 18 17 25 10 8 13 15 13 12 14 19 23 16 11 17 15 7 4 5 5 5 6 7 8
32 38 44 45 42 40 38 38 39 39 35 29 24 19 14 9 9 11 11 11 10 9 9 6 7 3 24 13 17 11 10 10 12 14 19 19 12 3 8 9 4 1 5 6 8 2 4
31 36 43 46 46 42 40 40 41 42 39 32 26 18 13 10 8 8 10 8 3 2 1 4 4 2 6 13 21 7 7 8 9 13 11 13 16 17 9 10 3 2 3 7 7 3 3
30 36 40 45 45 44 40 38 38 38 39 34 30 20 16 7 4 4 5 4 8 8 2 5 1 5 4 4 19 14 7 5 3 5 14 8 6 9 4 3 5 4 9 10 10 2 4
25 31 36 43 45 45 44 41 38 36 36 33 28 24 14 12 6 5 6 9 9 15 7 6 2 6 2 5 10 18 4 6 2 3 1 4 6 3 7 8 7 9 9 12 15 1 11
22 28 32 37 43 45 46 44 40 36 35 33 28 22 19 9 7 8 8 8 9 2 8 9 6 5 4 5 3 18 7 1 3 8 4 8 4 8 5 6 2 4 11 18 20 6 16
19 26 29 35 38 41 45 45 44 40 35 33 30 25 22 17 4 11 8 9 7 10 7 7 6 6 6 7 3 20 8 2 5 5 4 4 4 2 2 3 4 9 17 12 15 5 17
15 23 28 32 36 38 40 45 46 45 41 36 32 29 26 18 6 12 3 6 9 5 2 2 4 4 5 7 3 15 15 6 7 4 7 2 6 4 3 3 10 11 10 13 14 27 10
14 20 26 30 33 36 39 41 45 47 45 40 34 30 27 20 7 11 7 10 5 1 3 3 1 4 5 4 0 10 11 4 3 1 2 1 6 3 4 6 4 10 2 8 22 19 10
14 20 24 29 32 35 39 40 44 46 47 44 36 31 27 22 12 9 6 5 3 2 5 2 1 4 6 1 4 2 5 3 3 3 5 2 7 6 9 3 5 8 6 16 9 10 11
17 21 25 27 32 35 38 40 40 44 46 46 40 31 24 21 18 12 7 2 3 3 7 1 3 5 5 3 3 8 2 3 4 4 3 2 1 5 2 3 7 13 8 5 4 4 6
22 23 26 28 32 36 38 40 39 40 43 45 42 34 22 18 12 8 4 6 3 4 3 2 3 5 4 5 2 7 4 1 4 6 3 4 5 4 4 6 5 7 12 8 6 5 7
26 28 29 31 33 36 38 39 39 40 39 41 43 36 18 13 11 7 8 4 4 2 4 1 3 5 6 5 1 4 3 6 7 4 2 4 6 11 8 3 4 5 5 6 13 11 22
29 29 33 33 35 37 37 38 40 40 43 39 39 33 15 10 12 9 4 2 4 5 1 3 4 4 3 3 5 5 8 6 7 16 6 6 8 5 1 3 3 7 7 4 9 4 10
32 31 31 34 34 34 34 38 40 41 43 42 36 25 4 9 11 9 2 5 3 1 3 2 6 4 6 4 5 4 5 8 7 9 1 3 10 4 6 5 5 6 9 3 4 9 20
29 29 32 31 33 32 30 36 40 40 40 38 30 15 7 14 17 0 5 5 5 7 8 7 5 7 11 5 7 7 7 6 7 10 3 8 6 4 2 16 15 10 7 6 6 7 9
25 27 28 31 32 32 30 36 35 35 34 31 17 8 18 17 3 3 1 2 5 3 6 7 5 9 9 6 9 10 11 9 13 17 9 8 5 12 17 6 2 3 9 17 10 10 10
29 28 28 29 28 27 29 32 31 30 31 32 26 13 11 9 5 1 2 4 6 4 6 4 6 10 2 7 9 10 7 1 17 15 9 12 8 11 8 6 3 9 10 16 10 3 21
32 31 30 31 31 31 31 32 32 32 31 28 13 6 6 4 3 0 3 5 5 9 9 11 7 7 7 10 15 7 7 1 10 9 4 12 7 25 24 30 14 12 20 23 19 9 24
44 42 40 37 36 36 34 33 33 30 27 22 4 5 5 6 6 5 5 3 17 13 13 12 7 20 16 10 8 12 10 5 7 9 7 4 13 23 40 44 43 50 45 44 33 49 23
43 44 41 41 39 43 38 31 29 25 21 16 8 7 5 9 10 7 9 13 24 21 9 10 15 11 16 16 20 21 9 8 14 7 14 12 8 8 19 40 42 51 41 45 47 47 44
29 29 30 28 26 28 33 33 29 25 21 11 14 19 10 9 4 6 11 15 6 0 12 12 10 4 7 24 33 43 41 37 27 15 21 16 9 9 16 11 17 32 33 35 12 13 16
33 33 32 34 36 40 33 31 31 29 33 33 32 27 12 9 15 13 8 11 12 9 15 22 24 15 26 38 34 37 32 34 41 45 38 16 10 6 9 10 16 4 5 6 18 15 22
44 47 45 43 43 42 43 37 34 34 33 43 45 39 17 6 22 21 31 27 31 34 20 24 37 49 43 27 14 13 8 13 19 22 26 38 15 7 7 13 15 28 10 10 10 10 20
39 38 41 43 44 43 43 42 42 45 43 42 40 50 29 8 19 40 28 24 18 17 20 20 32 27 13 8 7 9 10 7 7 7 1 4 22 11 7 10 9 7 16 31 17 8 36
39 41 42 44 45 46 46 45 44 42 43 47 45 46 51 17 28 33 18 13 13 7 6 10 11 10 19 7 6 8 8 8 9 10 6 5 4 17 18 10 7 14 35 25 10 10 31
34 36 36 40 43 45 46 47 46 45 43 45 47 44 45 23 45 42 51 42 27 21 11 3 6 11 7 7 7 7 8 5 4 2 5 11 9 9 8 11 16 52 3 8 14 14 23
31 33 35 38 39 40 42 41 42 43 41 40 44 43 38 50 31 27 51 62 56 51 35 18 12 8 18 5 5 3 6 5 5 8 5 9 7 3 6 8 20 30 30 20 21 17 24
Wind_Direction_500mb
36 31 31 34 39 42 42 41 39 38 42 49 64 74 83 86 94 105 112 115 113 112 93 59 40 32 57 54 26 14 34 40 42 52 82 91 85 110 105 99 105 91 140 154 196 214 252
37 35 34 37 40 41 40 39 38 38 40 44 50 62 75 82 94 104 110 113 110 107 116 86 63 49 54 79 16 29 41 45 56 56 59 70 94 107 96 74 33 106 166 193 204 236 249
38 36 37 37 38 38 37 36 35 35 37 39 38 43 55 78 100 107 113 116 111 106 180 337 28 86 55 55 24 33 48 52 56 56 53 62 82 78 113 116 89 145 240 207 199 198 261
40 37 35 39 37 37 35 34 32 30 29 31 31 36 44 64 104 122 127 101 76 50 249 283 316 39 110 43 29 24 26 32 43 51 57 69 87 78 63 124 84 344 259 307 139 195 173
42 39 37 39 38 36 34 33 32 31 28 26 27 29 36 53 83 120 153 107 37 247 157 48 348 163 95 21 10 25 45 48 68 63 44 61 73 80 84 223 171 42 327 324 308 232 282
39 39 38 37 36 36 33 30 28 28 27 27 27 28 21 28 1 286 246 212 347 17 231 249 332 146 70 336 15 11 356 24 15 258 48 61 63 122 36 359 8 336 325 315 284 260 263
35 36 34 33 34 33 31 30 26 23 22 22 23 24 20 348 340 317 251 225 286 226 79 111 85 99 23 348 24 9 15 261 22 65 33 20 58 39 39 47 57 286 289 289 288 308 297
32 27 26 28 28 28 28 27 25 21 18 17 16 15 10 359 333 328 255 227 237 158 101 79 60 51 30 0 3 11 18 67 46 56 331 202 81 102 143 167 253 261 295 315 292 273 309
20 16 15 17 20 20 22 23 23 20 16 13 13 10 8 8 31 11 49 181 156 155 116 60 39 22 355 349 34 360 20 44 55 72 27 345 92 133 230 251 295 292 278 332 304 316 250
7 0 4 7 10 12 13 15 17 18 16 13 11 11 11 17 18 12 78 127 124 91 233 84 333 341 333 341 274 6 13 48 84 9 168 271 140 203 220 269 267 303 199 292 305 321 310
333 341 349 357 360 2 5 6 10 13 13 12 10 10 14 20 15 32 101 128 19 81 310 68 303 302 324 350 298 273 6 51 186 159 211 108 190 201 234 244 196 313 303 303 295 282 304
303 323 333 342 348 351 356 358 359 5 8 8 8 6 10 17 27 46 103 67 344 237 262 102 301 333 312 8 343 318 7 65 129 165 227 286 221 232 305 186 222 307 276 256 210 244 249
290 305 318 328 334 341 347 350 353 356 2 4 2 1 2 15 20 36 21 339 270 225 57 29 337 3 322 298 335 12 7 225 268 275 242 203 200 182 214 254 199 298 303 301 277 240 303
286 294 305 315 324 332 337 344 346 350 354 358 358 353 354 6 12 357 333 249 252 64 253 94 275 275 264 354 195 321 269 244 208 201 199 287 263 187 164 278 320 23 323 289 296 303 306
281 285 294 304 316 324 331 341 342 342 343 346 349 348 350 19 10 358 337 275 266 206 142 250 229 258 230 206 253 287 227 243 209 194 239 224 246 123 121 138 261 142 220 29 280 232 280
283 285 288 295 304 313 326 338 340 342 342 341 341 336 360 2 357 345 269 256 254 167 155 211 252 223 266 211 254 242 231 160 196 199 280 192 278 160 117 140 78 259 133 207 205 281 294
288 290 292 297 300 304 317 329 335 338 342 346 339 318 297 333 327 163 235 244 275 241 212 214 245 250 236 261 229 235 262 199 191 158 176 176 238 143 186 204 190 160 195 197 288 238 271
289 292 295 299 302 309 311 317 326 336 339 350 354 308 313 333 283 28 235 266 316 300 236 267 274 259 243 208 243 245 245 250 166 161 188 188 236 251 249 102 31 268 221 196 226 231 240
284 286 291 295 297 303 311 315 320 330 341 356 336 296 311 340 279 232 260 262 242 209 223 199 258 226 223 252 257 226 235 309 178 180 186 180 212 292 231 143 54 241 211 216 269 22 235
280 277 281 288 293 295 299 304 310 315 324 338 333 304 305 11 111 39 303 248 263 230 239 208 238 202 192 232 224 272 249 196 183 197 223 179 231 243 258 273 261 237 226 225 209 220 258
276 277 277 283 288 294 298 302 302 304 313 326 272 281 258 283 268 209 193 261 271 274 218 215 213 230 208 248 244 228 240 265 184 178 120 159 253 252 255 267 275 272 274 265 227 241 247
266 271 273 278 283 287 286 290 293 302 309 309 258 264 287 278 281 257 212 244 270 266 235 235 236 275 225 244 251 291 226 230 264 145 160 174 238 221 262 264 261 272 265 260 255 258 256
262 264 270 270 279 286 283 279 280 289 293 285 257 258 260 250 221 237 258 267 255 240 258 247 227 286 256 263 271 272 271 271 249 215 192 174 208 202 258 279 302 280 264 240 217 226 238
288 284 276 275 274 273 266 275 276 265 272 270 265 250 211 241 217 231 250 236 249 237 264 283 289 266 289 290 289 288 267 257 250 244 212 183 192 206 272 288 255 279 9 259 238 47 18
282 283 279 276 275 272 270 265 266 272 266 257 260 248 211 240 225 247 251 255 270 273 254 260 269 269 268 282 268 265 241 264 240 240 232 222 204 236 240 222 303 297 32 9 14 83 19
281 276 274 275 274 271 266 266 263 258 259 269 265 262 234 223 209 241 260 255 259 264 274 253 272 277 241 239 220 234 236 239 266 241 91 193 232 211 187 237 249 58 9 351 326 193 15
289 284 279 276 274 272 270 267 265 262 258 261 263 265 245 236 241 223 213 234 213 220 253 259 259 230 214 199 235 230 238 217 237 228 196 165 182 224 238 262 226 355 318 318 245 1 7
305 301 294 286 281 277 274 270 266 262 261 264 266 262 254 258 261 235 244 232 237 236 250 239 281 214 194 224 226 212 232 199 278 277 201 236 195 225 213 234 247 354 49 8 346 356 5
320 315 309 304 297 290 286 278 271 267 262 262 264 263 268 260 262 269 251 249 255 258 254 223 238 215 213 205 234 257 237 215 241 276 195 245 312 331 40 52 61 42 63 43 13 9 2
Wind_Speed_850mb
39 44 43 39 36 35 35 36 35 33 29 26 21 19 17 16 16 16 16 16 16 15 10 9 10 7 4 9 11 16 15 15 19 17 11 14 12 8 8 9 8 10 7 4 4 5 7
36 41 44 42 39 38 37 37 37 35 32 28 23 17 14 13 13 14 15 17 13 9 19 18 17 25 10 8 13 15 13 12 14 19 23 16 11 17 15 7 4 5 5 5 6 7 8
32 38 44 45 42 40 38 38 39 39 35 29 24 19 14 9 9 11 11 11 10 9 9 6 7 3 24 13 17 11 10 10 12 14 19 19 12 3 8 9 4 1 5 6 8 2 4
31 36 43 46 46 42 40 40 41 42 39 32 26 18 13 10 8 8 10 8 3 2 1 4 4 2 6 13 21 7 7 8 9 13 11 13 16 17 9 10 3 2 3 7 7 3 3
30 36 40 45 45 44 40 38 38 38 39 34 30 20 16 7 4 4 5 4 8 8 2 5 1 5 4 4 19 14 7 5 3 5 14 8 6 9 4 3 5 4 9 10 10 2 4
25 31 36 43 45 45 44 41 38 36 36 33 28 24 14 12 6 5 6 9 9 15 7 6 2 6 2 5 10 18 4 6 2 3 1 4 6 3 7 8 7 9 9 12 15 1 11
22 28 32 37 43 45 46 44 40 36 35 33 28 22 19 9 7 8 8 8 9 2 8 9 6 5 4 5 3 18 7 1 3 8 4 8 4 8 5 6 2 4 11 18 20 6 16
19 26 29 35 38 41 45 45 44 40 35 33 30 25 22 17 4 11 8 9 7 10 7 7 6 6 6 7 3 20 8 2 5 5 4 4 4 2 2 3 4 9 17 12 15 5 17
15 23 28 32 36 38 40 45 46 45 41 36 32 29 26 18 6 12 3 6 9 5 2 2 4 4 5 7 3 15 15 6 7 4 7 2 6 4 3 3 10 11 10 13 14 27 10
14 20 26 30 33 36 39 41 45 47 45 40 34 30 27 20 7 11 7 10 5 1 3 3 1 4 5 4 0 10 11 4 3 1 2 1 6 3 4 6 4 10 2 8 22 19 10
14 20 24 29 32 35 39 40 44 46 47 44 36 31 27 22 12 9 6 5 3 2 5 2 1 4 6 1 4 2 5 3 3 3 5 2 7 6 9 3 5 8 6 16 9 10 11
17 21 25 27 32 35 38 40 40 44 46 46 40 31 24 21 18 12 7 2 3 3 7 1 3 5 5 3 3 8 2 3 4 4 3 2 1 5 2 3 7 13 8 5 4 4 6
22 23 26 28 32 36 38 40 39 40 43 45 42 34 22 18 12 8 4 6 3 4 3 2 3 5 4 5 2 7 4 1 4 6 3 4 5 4 4 6 5 7 12 8 6 5 7
26 28 29 31 33 36 38 39 39 40 39 41 43 36 18 13 11 7 8 4 4 2 4 1 3 5 6 5 1 4 3 6 7 4 2 4 6 11 8 3 4 5 5 6 13 11 22
29 29 33 33 35 37 37 38 40 40 43 39 39 33 15 10 12 9 4 2 4 5 1 3 4 4 3 3 5 5 8 6 7 16 6 6 8 5 1 3 3 7 7 4 9 4 10
32 31 31 34 34 34 34 38 40 41 43 42 36 25 4 9 11 9 2 5 3 1 3 2 6 4 6 4 5 4 5 8 7 9 1 3 10 4 6 5 5 6 9 3 4 9 20
29 29 32 31 33 32 30 36 40 40 40 38 30 15 7 14 17 0 5 5 5 7 8 7 5 7 11 5 7 7 7 6 7 10 3 8 6 4 2 16 15 10 7 6 6 7 9
25 27 28 31 32 32 30 36 35 35 34 31 17 8 18 17 3 3 1 2 5 3 6 7 5 9 9 6 9 10 11 9 13 17 9 8 5 12 17 6 2 3 9 17 10 10 10
29 28 28 29 28 27 29 32 31 30 31 32 26 13 11 9 5 1 2 4 6 4 6 4 6 10 2 7 9 10 7 1 17 15 9 12 8 11 8 6 3 9 10 16 10 3 21
32 31 30 31 31 31 31 32 32 32 31 28 13 6 6 4 3 0 3 5 5 9 9 11 7 7 7 10 15 7 7 1 10 9 4 12 7 25 24 30 14 12 20 23 19 9 24
44 42 40 37 36 36 34 33 33 30 27 22 4 5 5 6 6 5 5 3 17 13 13 12 7 20 16 10 8 12 10 5 7 9 7 4 13 23 40 44 43 50 45 44 33 49 23
43 44 41 41 39 43 38 31 29 25 21 16 8 7 5 9 10 7 9 13 24 21 9 10 15 11 16 16 20 21 9 8 14 7 14 12 8 8 19 40 42 51 41 45 47 47 44
29 29 30 28 26 28 33 33 29 25 21 11 14 19 10 9 4 6 11 15 6 0 12 12 10 4 7 24 33 43 41 37 27 15 21 16 9 9 16 11 17 32 33 35 12 13 16
33 33 32 34 36 40 33 31 31 29 33 33 32 27 12 9 15 13 8 11 12 9 15 22 24 15 26 38 34 37 32 34 41 45 38 16 10 6 9 10 16 4 5 6 18 15 22
44 47 45 43 43 42 43 37 34 34 33 43 45 39 17 6 22 21 31 27 31 34 20 24 37 49 43 27 14 13 8 13 19 22 26 38 15 7 7 13 15 28 10 10 10 10 20
39 38 41 43 44 43 43 42 42 45 43 42 40 50 29 8 19 40 28 24 18 17 20 20 32 27 13 8 7 9 10 7 7 7 1 4 22 11 7 10 9 7 16 31 17 8 36
39 41 42 44 45 46 46 45 44 42 43 47 45 46 51 17 28 33 18 13 13 7 6 10 11 10 19 7 6 8 8 8 9 10 6 5 4 17 18 10 7 14 35 25 10 10 31
34 36 36 40 43 45 46 47 46 45 43 45 47 44 45 23 45 42 51 42 27 21 11 3 6 11 7 7 7 7 8 5 4 2 5 11 9 9 8 11 16 52 3 8 14 14 23
31 33 35 38 39 40 42 41 42 43 41 40 44 43 38 50 31 27 51 62 56 51 35 18 12 8 18 5 5 3 6 5 5 8 5 9 7 3 6 8 20 30 30 20 21 17 24
Wind_Direction_850mb
36 31 31 34 39 42 42 41 39 38 42 49 64 74 83 86 94 105 112 115 113 112 93 59 40 32 57 54 26 14 34 40 42 52 82 91 85 110 105 99 105 91 140 154 196 214 252
37 35 34 37 40 41 40 39 38 38 40 44 50 62 75 82 94 104 110 113 110 107 116 86 63 49 54 79 16 29 41 45 56 56 59 70 94 107 96 74 33 106 166 193 204 236 249
38 36 37 37 38 38 37 36 35 35 37 39 38 43 55 78 100 107 113 116 111 106 180 337 28 86 55 55 24 33 48 52 56 56 53 62 82 78 113 116 89 145 240 207 199 198 261
40 37 35 39 37 37 35 34 32 30 29 31 31 36 44 64 104 122 127 101 76 50 249 283 316 39 110 43 29 24 26 32 43 51 57 69 87 78 63 124 84 344 259 307 139 195 173
42 39 37 39 38 36 34 33 32 31 28 26 27 29 36 53 83 120 153 107 37 247 157 48 348 163 95 21 10 25 45 48 68 63 44 61 73 80 84 223 171 42 327 324 308 232 282
39 39 38 37 36 36 33 30 28 28 27 27 27 28 21 28 1 286 246 212 347 17 231 249 332 146 70 336 15 11 356 24 15 258 48 61 63 122 36 359 8 336 325 315 284 260 263
35 36 34 33 34 33 31 30 26 23 22 22 23 24 20 348 340 317 251 225 286 226 79 111 85 99 23 348 24 9 15 261 22 65 33 20 58 39 39 47 57 286 289 289 288 308 297
32 27 26 28 28 28 28 27 25 21 18 17 16 15 10 359 333 328 255 227 237 158 101 79 60 51 30 0 3 11 18 67 46 56 331 202 81 102 143 167 253 261 295 315 292 273 309
20 16 15 17 20 20 22 23 23 20 16 13 13 10 8 8 31 11 49 181 156 155 116 60 39 22 355 349 34 360 20 44 55 72 27 345 92 133 230 251 295 292 278 332 304 316 250
7 0 4 7 10 12 13 15 17 18 16 13 11 11 11 17 18 12 78 127 124 91 233 84 333 341 333 341 274 6 13 48 84 9 168 271 140 203 220 269 267 303 199 292 305 321 310
333 341 349 357 360 2 5 6 10 13 13 12 10 10 14 20 15 32 101 128 19 81 310 68 303 302 324 350 298 273 6 51 186 159 211 108 190 201 234 244 196 313 303 303 295 282 304
303 323 333 342 348 351 356 358 359 5 8 8 8 6 10 17 27 46 103 67 344 237 262 102 301 333 312 8 343 318 7 65 129 165 227 286 221 232 305 186 222 307 276 256 210 244 249
290 305 318 328 334 341 347 350 353 356 2 4 2 1 2 15 20 36 21 339 270 225 57 29 337 3 322 298 335 12 7 225 268 275 242 203 200 182 214 254 199 298 303 301 277 240 303
286 294 305 315 324 332 337 344 346 350 354 358 358 353 354 6 12 357 333 249 252 64 253 94 275 275 264 354 195 321 269 244 208 201 199 287 263 187 164 278 320 23 323 289 296 303 306
281 285 294 304 316 324 331 341 342 342 343 346 349 348 350 19 10 358 337 275 266 206 142 250 229 258 230 206 253 287 227 243 209 194 239 224 246 123 121 138 261 142 220 29 280 232 280
283 285 288 295 304 313 326 338 340 342 342 341 341 336 360 2 357 345 269 256 254 167 155 211 252 223 266 211 254 242 231 160 196 199 280 192 278 160 117 140 78 259 133 207 205 281 294
288 290 292 297 300 304 317 329 335 338 342 346 339 318 297 333 327 163 235 244 275 241 212 214 245 250 236 261 229 235 262 199 191 158 176 176 238 143 186 204 190 160 195 197 288 238 271
289 292 295 299 302 309 311 317 326 336 339 350 354 308 313 333 283 28 235 266 316 300 236 267 274 259 243 208 243 245 245 250 166 161 188 188 236 251 249 102 31 268 221 196 226 231 240
284 286 291 295 297 303 311 315 320 330 341 356 336 296 311 340 279 232 260 262 242 209 223 199 258 226 223 252 257 226 235 309 178 180 186 180 212 292 231 143 54 241 211 216 269 22 235
280 277 281 288 293 295 299 304 310 315 324 338 333 304 305 11 111 39 303 248 263 230 239 208 238 202 192 232 224 272 249 196 183 197 223 179 231 243 258 273 261 237 226 225 209 220 258
276 277 277 283 288 294 298 302 302 304 313 326 272 281 258 283 268 209 193 261 271 274 218 215 213 230 208 248 244 228 240 265 184 178 120 159 253 252 255 267 275 272 274 265 227 241 247
266 271 273 278 283 287 286 290 293 302 309 309 258 264 287 278 281 257 212 244 270 266 235 235 236 275 225 244 251 291 226 230 264 145 160 174 238 221 262 264 261 272 265 260 255 258 256
262 264 270 270 279 286 283 279 280 289 293 285 257 258 260 250 221 237 258 267 255 240 258 247 227 286 256 263 271 272 271 271 249 215 192 174 208 202 258 279 302 280 264 240 217 226 238
288 284 276 275 274 273 266 275 276 265 272 270 265 250 211 241 217 231 250 236 249 237 264 283 289 266 289 290 289 288 267 257 250 244 212 183 192 206 272 288 255 279 9 259 238 47 18
282 283 279 276 275 272 270 265 266 272 266 257 260 248 211 240 225 247 251 255 270 273 254 260 269 269 268 282 268 265 241 264 240 240 232 222 204 236 240 222 303 297 32 9 14 83 19
281 276 274 275 274 271 266 266 263 258 259 269 265 262 234 223 209 241 260 255 259 264 274 253 272 277 241 239 220 234 236 239 266 241 91 193 232 211 187 237 249 58 9 351 326 193 15
289 284 279 276 274 272 270 267 265 262 258 261 263 265 245 236 241 223 213 234 213 220 253 259 259 230 214 199 235 230 238 217 237 228 196 165 182 224 238 262 226 355 318 318 245 1 7
305 301 294 286 281 277 274 270 266 262 261 264 266 262 254 258 261 235 244 232 237 236 250 239 281 214 194 224 226 212 232 199 278 277 201 236 195 225 213 234 247 354 49 8 346 356 5
320 315 309 304 297 290 286 278 271 267 262 262 264 263 268 260 262 269 251 249 255 258 254 223 238 215 213 205 234 257 237 215 241 276 195 245 312 331 40 52 61 42 63 43 13 9 2